Retour au catalogue

SL-8 R/B

ActifPO
NORAD 7594·ROCKET BODY·🇷🇺 Russia

Lancé Dec 26, 1974 depuis Plesetsk Cosmodrome

Loading…

Prochains Passages (prochaines 24 heures)

TLE

FraisSource: Space-Track

Époque: Sep 14, 2026, 13:55 UTC

1 07594U 74105B   26257.58012877 -.00000001  00000-0 -16068-4 0  9990
2 07594  82.9446 291.6753 0015313 230.1292 294.3338 13.79252857601092

Suivez SL-8 R/B en temps réel avec AllMySat

Download on the App Store